{"data":{"norad_id":66181,"epoch":"2026-05-24T23:52:26.342112Z","epoch_age_seconds":65765,"freshness":"FRESH","line1":"1 66181U 25243E   26144.99474933  .00018122  00000+0  62229-3 0  9990","line2":"2 66181  53.1571 251.0191 0000981  71.6554 288.4554 15.30210612 32339","mean_motion":15.30210612,"eccentricity":9.81e-5,"inclination_deg":53.1571,"raan_deg":251.0191,"arg_perigee_deg":71.6554,"mean_anomaly_deg":288.4554,"bstar":0.00062229,"rev_number":3233,"period_min":94.104693086523,"perigee_km":474.51107335359,"apogee_km":475.85569481294,"semimajor_km":6853.3203840833,"source":"CELESTRAK","updated_at":"2026-05-25T13:38:21.076013Z"}}